COSMOS 1275 DEB, 42113

Orbit data source: Space-Track

COSMOS 1275 DEB, 42113 is space debris in LEO originally from a launch on Thu, 04 Jun 1981 UTC launched from the Plesetsk Missile And Space Complex (PKMTR). Debris objects in space refer to the collection of defunct objects orbiting the Earth. Examples of debris include non-operational satellites, rocket bodies, and fragments generated from explosions, collisions, or faulty payload assembly.

Loading next visibility...
Identifier
42113, 1981-053PZ
Orbit
LEO
Country
Flag of CISCIS
Related business
Manufacturer
Unknown
Mission
Spacecraft
Bus & Motor
Unknown
Mass
Unknown
Launch date (UTC)
1981-06-04 (45 years ago)
Launch vehicle
Unknown
Launch site
Plesetsk Missile And Space Complex (PKMTR)
Object type
Payload
Rocket body
Debris
Shape & HBR
Unknown shape, 0.1 m
Radar Cross Section
Small (<0.1 m²)

Expand to show TLE details & history
Last TLE update: 2 days ago

TLE from 2 days ago
0 COSMOS 1275 DEB
1 42113U 81053PZ  26036.10303603  .00002209  00000-0  20570-2 0  9990
2 42113  82.7509 336.2281 0194267 334.0127  45.7107 13.73591639609868
Epoch: 2026-02-05T02:28Z
TLE epoch observation values (Epoch: 2026-02-05T02:28:22.312Z)
Latitude
21.17514°
Longitude
166.68451°
Altitude
890.825 km
Speed
7.458 km/s
True Right ascension
22h 36m 09s
True Declination
21° 03' 42"
Sunlit
Object was in daylight at epoch
Visualization orbit readout
Latitude
Unknown
Longitude
Unknown
Altitude
Unknown
Speed
Unknown
Apparent Right ascension
Unknown
Apparent Declination
Unknown
Sunlit
N/A
Visualization observer readout
Local Sidereal Time
18:54:49
Azimuth
Unknown
Elevation
Unknown
Doppler factor
Unknown
Orbital elements
Apogee altitude
1,126.881 km
Perigee altitude
840.842 km
Semi-major axis
7,361.998 km
Eccentricity
0.01943
Inclination
82.7509°
RAAN
336.2281°
Arg. of periapsis
334.0127°
True anomaly
47.33147°
Mean anomaly
45.7107°
Eccentric anomaly
46.51834°
Mean motion
3.43597 °/min
Orbital period
104.77 mins
BSTAR
0.002057
Loading maneuver chart data...
Computing Atmospheric mass density...
Loading historical data...
Loading historical data...
Loading historical data...
Loading historical data...
Loading historical data...
Loading historical data...
Loading historical data...

Documentation

Showing up to 5 results
|